Location: *
(10.4782°N, 67.2163°W)
Time: 00:52:16
(UTC+00:00)

Cosmos 1464 Rocket - Pass Details

Date: 23 May 2024
Orbit: 951 x 1001 km, 82.9° (Epoch: 12 June)

Event Time Altitude Azimuth Distance (km) Brightness Sun altitude
Rises 01:00:37 0° 353° (N) 3,659 7.5 -30.8°
Reaches altitude 10° 01:03:08 10° 351° (N) 2,705 6.8 -31.3°
Enters shadow 01:08:46 69° 307° (NW) 1,022 4.1 -32.5°
